Weather History for Winchester, TN

Change the Weather History Date:

Thursday, February 14, 2013

  Actual Average (KTHA) Record (KTHA)
Temperature  
Mean Temperature 42 °F -  
Max Temperature 55 °F 54 °F 57 °F (2013)
Min Temperature 28 °F 33 °F 26 °F (2013)
Degree Days  
Heating Degree Days 24    
Moisture  
Dew Point 34 °F    
Average Humidity 78    
Maximum Humidity 100    
Minimum Humidity 44    
Precipitation  
Precipitation 0.00 in - - ()
Sea Level Pressure  
Sea Level Pressure 30.04 in    
Wind  
Wind Speed 3 mph (SW)    
Max Wind Speed 12 mph    
Max Gust Speed -    
Visibility 10 miles    
Events      
Averages and records for this station are not official NWS values.
T = Trace of Precipitation, MM = Missing Value Source: NWS Daily Summary

Daily Weather History Graph

Daily Weather History Graph

Search for Another Location

Airport:

Trip Planner

Search our weather history database for the weather conditions in past years. The results will help you decide how hot, cold, wet, or windy it might be!

Date:

Astronomy

Feb. 14, 2013 Rise Set
Actual Time 7:31 AM EST 6:26 PM EST
Civil Twilight 7:05 AM EST 6:52 PM EST
Nautical Twilight 6:35 AM EST 7:21 PM EST
Astronomical Twilight 6:06 AM EST 7:51 PM EST
Moon 9:45 AM EST (2/14) 11:14 PM EST (2/14)
Length of Visible Light 11h 46m
Length of Day
10h 54m
Waxing Crescent, 21% of the Moon is Illuminated
Feb 14
Waxing Crescent
Feb 17
First Quarter
Feb 25
Full
Mar 4
Last Quarter
Mar 11
New

Hourly Weather History & Observations

Time (EST) Temp. Windchill Dew Point Humidity Pressure Visibility Wind Dir Wind Speed Gust Speed Precip Events Conditions
12:15 AM 37.4 °F 34.9 °F 35.6 °F 93% 30.02 in 10.0 mi West 3.5 mph - N/A   Overcast
12:35 AM 37.4 °F 34.9 °F 33.8 °F 87% 30.02 in 10.0 mi West 3.5 mph - N/A   Overcast
12:55 AM 37.4 °F - 33.8 °F 87% 30.02 in 10.0 mi Calm Calm - N/A   Overcast
1:35 AM 37.4 °F 34.9 °F 33.8 °F 87% 30.03 in 10.0 mi WNW 3.5 mph - N/A   Overcast
1:55 AM 37.4 °F 34.9 °F 33.8 °F 87% 30.03 in 10.0 mi West 3.5 mph - N/A   Overcast
2:15 AM 37.4 °F - 33.8 °F 87% 30.03 in 10.0 mi Calm Calm - N/A   Overcast
2:35 AM 37.4 °F - 33.8 °F 87% 30.02 in 10.0 mi Calm Calm - N/A   Overcast
2:55 AM 37.4 °F - 33.8 °F 87% 30.02 in 10.0 mi Calm Calm - N/A   Overcast
3:15 AM 37.4 °F - 32.0 °F 81% 30.03 in 10.0 mi Calm Calm - N/A   Overcast
3:35 AM 37.4 °F - 33.8 °F 87% 30.03 in 10.0 mi Calm Calm - N/A   Overcast
3:55 AM 35.6 °F - 33.8 °F 93% 30.02 in 10.0 mi Calm Calm - N/A   Mostly Cloudy
4:15 AM 35.6 °F - 33.8 °F 93% 30.02 in 10.0 mi Calm Calm - N/A   Partly Cloudy
4:35 AM 32.0 °F - 30.2 °F 93% 30.02 in 10.0 mi Calm Calm - N/A   Clear
4:55 AM 32.0 °F - 30.2 °F 93% 30.02 in 10.0 mi Calm Calm - N/A   Clear
5:15 AM 32.0 °F - 30.2 °F 93% 30.03 in 10.0 mi Calm Calm - N/A   Clear
5:35 AM 30.2 °F - 30.2 °F 100% 30.02 in 10.0 mi Calm Calm - N/A   Clear
5:55 AM 30.2 °F - 28.4 °F 93% 30.02 in 7.0 mi Calm Calm - N/A   Clear
6:15 AM 30.2 °F - 28.4 °F 93% 30.02 in 6.0 mi Calm Calm - N/A   Scattered Clouds
6:35 AM 28.4 °F - 28.4 °F 100% 30.02 in 5.0 mi Calm Calm - N/A   Partly Cloudy
6:55 AM 28.4 °F - 28.4 °F 100% 30.03 in 6.0 mi Calm Calm - N/A   Clear
7:15 AM 28.4 °F - 28.4 °F 100% 30.04 in 5.0 mi Calm Calm - N/A   Clear
7:35 AM 28.4 °F 24.6 °F 28.4 °F 100% 30.05 in 5.0 mi SE 3.5 mph - N/A   Clear
7:55 AM 30.2 °F 26.7 °F 28.4 °F 93% 30.06 in 7.0 mi SE 3.5 mph - N/A   Clear
8:15 AM 30.2 °F 26.7 °F 30.2 °F 100% 30.07 in 8.0 mi SSE 3.5 mph - N/A   Clear
8:35 AM 32.0 °F 26.4 °F 30.2 °F 93% 30.07 in 10.0 mi SE 5.8 mph - N/A   Partly Cloudy
8:55 AM 33.8 °F 29.6 °F 32.0 °F 93% 30.09 in 10.0 mi SE 4.6 mph - N/A   Mostly Cloudy
9:15 AM 35.6 °F 31.7 °F 33.8 °F 93% 30.09 in 10.0 mi ESE 4.6 mph - N/A   Overcast
9:35 AM 37.4 °F 33.8 °F 35.6 °F 93% 30.08 in 10.0 mi ESE 4.6 mph - N/A   Scattered Clouds
9:55 AM 39.2 °F 37.0 °F 35.6 °F 87% 30.07 in 10.0 mi SSE 3.5 mph - N/A   Clear
10:15 AM 42.8 °F 39.3 °F 35.6 °F 76% 30.06 in 10.0 mi Variable 5.8 mph - N/A   Clear
10:35 AM 44.6 °F 39.7 °F 35.6 °F 71% 30.06 in 10.0 mi WSW 9.2 mph - N/A   Clear
10:55 AM 44.6 °F 41.4 °F 35.6 °F 71% 30.06 in 10.0 mi WNW 5.8 mph - N/A   Partly Cloudy
11:15 AM 44.6 °F 40.7 °F 37.4 °F 76% 30.06 in 10.0 mi Variable 6.9 mph - N/A   Partly Cloudy
11:35 AM 46.4 °F 41.9 °F 37.4 °F 71% 30.07 in 10.0 mi WSW 9.2 mph - N/A   Clear
11:55 AM 46.4 °F 43.5 °F 37.4 °F 71% 30.07 in 10.0 mi SSW 5.8 mph - N/A   Clear
12:15 PM 48.2 °F - 37.4 °F 66% 30.07 in 10.0 mi SW 8.1 mph - N/A   Clear
12:35 PM 48.2 °F - 37.4 °F 66% 30.06 in 10.0 mi WSW 6.9 mph - N/A   Clear
12:55 PM 50.0 °F - 37.4 °F 62% 30.05 in 10.0 mi WSW 8.1 mph - N/A   Clear
1:15 PM 51.8 °F - 35.6 °F 54% 30.04 in 10.0 mi SW 9.2 mph - N/A   Clear
1:35 PM 53.6 °F - 35.6 °F 51% 30.02 in 10.0 mi WSW 6.9 mph - N/A   Clear
1:55 PM 53.6 °F - 35.6 °F 51% 30.02 in 10.0 mi WSW 11.5 mph - N/A   Clear
2:15 PM 53.6 °F - 35.6 °F 51% 30.02 in 10.0 mi WSW 9.2 mph - N/A   Clear
2:35 PM 53.6 °F - 35.6 °F 51% 30.02 in 10.0 mi WSW 9.2 mph - N/A   Clear
2:55 PM 53.6 °F - 33.8 °F 47% 30.01 in 10.0 mi WSW 8.1 mph - N/A   Clear
3:15 PM 53.6 °F - 33.8 °F 47% 30.01 in 10.0 mi WSW 11.5 mph - N/A   Clear
3:35 PM 55.4 °F - 33.8 °F 44% 30.02 in 10.0 mi Variable 5.8 mph - N/A   Clear
4:35 PM 55.4 °F - 35.6 °F 47% 30.02 in 10.0 mi SW 10.4 mph - N/A   Clear
4:55 PM 55.4 °F - 33.8 °F 44% 30.02 in 10.0 mi West 10.4 mph - N/A   Clear
5:15 PM 55.4 °F - 33.8 °F 44% 30.02 in 10.0 mi SW 8.1 mph - N/A   Clear
5:35 PM 53.6 °F - 33.8 °F 47% 30.02 in 10.0 mi WSW 9.2 mph - N/A   Clear
5:55 PM 53.6 °F - 33.8 °F 47% 30.02 in 10.0 mi WSW 8.1 mph - N/A   Clear
6:15 PM 51.8 °F - 33.8 °F 50% 30.02 in 10.0 mi WSW 5.8 mph - N/A   Clear
6:35 PM 50.0 °F - 33.8 °F 54% 30.02 in 10.0 mi SW 3.5 mph - N/A   Clear
6:55 PM 48.2 °F - 33.8 °F 58% 30.03 in 10.0 mi Calm Calm - N/A   Clear
7:15 PM 46.4 °F - 33.8 °F 62% 30.03 in 10.0 mi Calm Calm - N/A   Clear
7:35 PM 42.8 °F - 35.6 °F 76% 30.03 in 10.0 mi Calm Calm - N/A   Clear
7:55 PM 41.0 °F - 33.8 °F 76% 30.03 in 10.0 mi Calm Calm - N/A   Clear
8:15 PM 39.2 °F - 33.8 °F 81% 30.04 in 10.0 mi Calm Calm - N/A   Clear
8:35 PM 39.2 °F - 33.8 °F 81% 30.04 in 10.0 mi Calm Calm - N/A   Clear
8:55 PM 39.2 °F - 33.8 °F 81% 30.04 in 10.0 mi Calm Calm - N/A   Clear
9:15 PM 39.2 °F - 33.8 °F 81% 30.04 in 10.0 mi Calm Calm - N/A   Clear
9:35 PM 37.4 °F - 33.8 °F 87% 30.04 in 10.0 mi Calm Calm - N/A   Clear
9:55 PM 37.4 °F - 33.8 °F 87% 30.05 in 10.0 mi Calm Calm - N/A   Clear
10:15 PM 35.6 °F - 33.8 °F 93% 30.05 in 10.0 mi Calm Calm - N/A   Clear
10:35 PM 35.6 °F - 33.8 °F 93% 30.06 in 10.0 mi Calm Calm - N/A   Clear
10:55 PM 35.6 °F - 33.8 °F 93% 30.06 in 10.0 mi Calm Calm - N/A   Clear
11:15 PM 35.6 °F - 33.8 °F 93% 30.06 in 10.0 mi Calm Calm - N/A   Clear
11:35 PM 35.6 °F - 33.8 °F 93% 30.05 in 10.0 mi Calm Calm - N/A   Clear
11:55 PM 35.6 °F - 33.8 °F 93% 30.05 in 10.0 mi Calm Calm - N/A   Clear